FW3611 Weather Reports


Display with metric or nautical units.
time (UTC)temp
F
wind
direction
speed
MPH
gust
MPH
rain 1hr
in
rain 24hr
in
rain mn
in
humidity
%
barometer
mb
20260906035739 80 267 0.0 0.0 0.00 0.00 0.00 91 1012.3
20260906035235 80 267 0.0 0.0 0.00 0.00 0.00 91 1012.3
20260906034736 80 267 0.0 0.0 0.00 0.00 0.00 91 1012.4
20260906034228 80 267 0.0 0.0 0.00 0.00 0.00 91 1012.3
20260906033726 80 267 0.0 0.0 0.00 0.00 0.00 91 1012.4
20260906033225 80 267 0.0 0.0 0.00 0.00 0.00 90 1012.5
20260906032725 81 267 0.0 0.0 0.00 0.00 0.00 90 1012.4
20260906032223 81 267 0.0 0.0 0.00 0.00 0.00 90 1012.5
20260906031721 81 267 0.0 0.0 0.00 0.00 0.00 90 1012.6
20260906031220 81 267 0.0 0.0 0.00 0.00 0.00 90 1012.6
20260906030226 81 267 0.0 0.0 0.00 0.00 0.00 90 1012.6
20260906025717 81 267 0.0 0.0 0.00 0.00 0.00 90 1012.5
20260906025211 81 267 0.0 0.0 0.00 0.00 0.00 89 1012.6
20260906024710 81 267 0.0 0.0 0.00 0.00 0.00 89 1012.7
20260906024208 81 267 0.0 0.0 0.00 0.00 0.00 89 1012.5
20260906023710 81 267 0.0 0.0 0.00 0.00 0.00 89 1012.4
20260906023213 81 267 0.0 0.0 0.00 0.00 0.00 89 1012.5
20260906022203 82 267 0.0 0.0 0.00 0.00 0.00 88 1012.2
20260906021702 82 267 0.0 0.0 0.00 0.00 0.00 88 1012.4
20260906021201 82 267 0.0 0.0 0.00 0.00 0.00 88 1012.4
20260906020704 82 267 0.0 0.0 0.00 0.00 0.00 88 1012.2
20260906020201 82 267 0.0 0.0 0.00 0.00 0.00 88 1012.2
20260906015701 82 267 0.0 0.0 0.00 0.00 0.00 88 1012.2
20260906015201 82 267 0.0 0.0 0.00 0.00 0.00 87 1012.2
20260906014701 83 267 0.0 0.0 0.00 0.00 0.00 87 1012.3
20260906014206 83 267 0.0 0.0 0.00 0.00 0.00 86 1012.3
20260906013703 83 267 0.0 0.0 0.00 0.00 0.00 86 1012.2
20260906012701 83 267 0.0 0.0 0.00 0.00 0.00 86 1012.1
20260906011200 83 267 0.0 0.0 0.00 0.00 0.00 84 1012.0
20260906010700 84 267 0.0 0.0 0.00 0.00 0.00 84 1012.0
20260906010159 84 267 0.0 0.0 0.00 0.00 0.00 84 1011.8
20260906005657 84 267 0.0 0.0 0.00 0.00 0.00 83 1011.7
20260906005157 84 267 0.0 0.0 0.00 0.00 0.00 83 1011.6
20260906004657 85 267 0.0 0.0 0.00 0.00 0.00 83 1011.6
20260906004156 85 267 0.0 0.0 0.00 0.00 0.00 83 1011.4
20260906003656 85 267 0.0 0.0 0.00 0.00 0.00 82 1011.4
20260906002654 85 267 0.0 0.0 0.00 0.00 0.00 81 1011.5
20260906001156 86 267 0.0 0.0 0.00 0.00 0.00 78 1011.5
20260906000651 87 267 0.0 0.0 0.00 0.00 0.00 78 1011.4
20260906000151 87 267 0.0 0.0 0.00 0.00 0.00 77 1011.4
20260905235650 88 267 0.0 0.0 0.00 0.00 0.00 76 1011.3
20260905235148 88 267 0.0 0.0 0.00 0.00 0.00 74 1011.3
20260905234648 89 267 0.0 0.0 0.00 0.00 0.00 73 1011.3
20260905234146 89 267 0.0 0.0 0.00 0.00 0.00 72 1011.3
20260905233647 90 267 0.0 0.0 0.00 0.00 0.00 70 1011.3
20260905233147 90 267 0.0 0.0 0.00 0.00 0.00 69 1011.2
20260905232648 91 267 1.0 2.0 0.00 0.00 0.00 68 1011.1
20260905231645 91 267 2.0 7.0 0.00 0.00 0.00 68 1011.4
20260905230647 91 241 3.0 8.0 0.00 0.00 0.00 66 1011.3
20260905230145 91 240 3.0 8.0 0.00 0.00 0.00 66 1011.5
20260905225645 91 237 3.0 7.0 0.00 0.00 0.00 67 1011.5
20260905225139 91 271 3.0 7.0 0.00 0.00 0.00 67 1011.5
20260905224641 92 300 3.0 5.0 0.00 0.00 0.00 67 1011.5
20260905224137 91 29 3.0 8.0 0.00 0.00 0.00 67 1011.4
20260905223133 91 175 3.0 6.0 0.00 0.00 0.00 67 1011.3
20260905222133 91 268 3.0 6.0 0.00 0.00 0.00 66 1011.6
20260905221136 92 268 2.0 7.0 0.00 0.00 0.00 65 1011.5
20260905220628 92 262 2.0 6.0 0.00 0.00 0.00 66 1011.6
20260905215631 92 262 2.0 4.0 0.00 0.00 0.00 67 1011.6
20260905215132 91 261 4.0 9.0 0.00 0.00 0.00 65 1011.7
20260905214630 92 262 4.0 9.0 0.00 0.00 0.00 65 1011.7
20260905214130 92 270 2.0 8.0 0.00 0.00 0.00 65 1011.7
20260905213632 92 235 2.0 6.0 0.00 0.00 0.00 66 1011.7
20260905213139 91 259 3.0 6.0 0.00 0.00 0.00 66 1011.6
20260905212133 91 266 3.0 8.0 0.00 0.00 0.00 67 1011.6
20260905211635 92 266 3.0 8.0 0.00 0.00 0.00 66 1011.6
20260905211137 92 293 4.0 8.0 0.00 0.00 0.00 66 1011.5
20260905210631 91 241 4.0 9.0 0.00 0.00 0.00 67 1011.5
20260905205631 92 262 3.0 8.0 0.00 0.00 0.00 67 1011.4
20260905205127 91 239 4.0 7.0 0.00 0.00 0.00 67 1011.4
20260905204626 91 309 5.0 9.0 0.00 0.00 0.00 67 1011.5
20260905204126 91 288 4.0 9.0 0.00 0.00 0.00 67 1011.5
20260905203625 92 300 3.0 7.0 0.00 0.00 0.00 65 1011.5
20260905202625 91 284 3.0 10.0 0.00 0.00 0.00 67 1011.6
20260905201627 91 272 4.0 9.0 0.00 0.00 0.00 66 1011.7
20260905200617 91 232 4.0 8.0 0.00 0.00 0.00 66 1011.9
20260905200118 91 288 4.0 9.0 0.00 0.00 0.00 66 1012.0
20260905195110 90 243 4.0 8.0 0.00 0.00 0.00 69 1012.0
20260905194614 90 290 3.0 7.0 0.00 0.00 0.00 69 1012.0
20260905194113 90 231 3.0 7.0 0.00 0.00 0.00 68 1012.2
20260905193616 90 233 3.0 7.0 0.00 0.00 0.00 67 1012.2
20260905193102 90 292 3.0 8.0 0.00 0.00 0.00 69 1012.3
20260905192601 89 250 4.0 8.0 0.00 0.00 0.00 70 1012.5
20260905192103 89 277 4.0 8.0 0.00 0.00 0.00 70 1012.6
20260905191601 89 248 5.0 9.0 0.00 0.00 0.00 69 1012.7
20260905190602 89 210 4.0 8.0 0.00 0.00 0.00 72 1013.1
20260905185601 89 267 4.0 12.0 0.00 0.00 0.00 71 1013.2
20260905185102 88 270 4.0 10.0 0.00 0.00 0.00 71 1013.2
20260905184602 89 248 5.0 9.0 0.00 0.00 0.00 71 1013.2
20260905184106 89 245 5.0 10.0 0.00 0.00 0.00 72 1013.2
20260905183104 89 255 4.0 10.0 0.00 0.00 0.00 72 1013.3
20260905182603 88 266 5.0 10.0 0.00 0.00 0.00 73 1013.4
20260905181600 88 262 4.0 10.0 0.00 0.00 0.00 75 1013.4
20260905180602 88 304 5.0 10.0 0.00 0.00 0.00 74 1013.6
20260905175556 87 297 4.0 7.0 0.00 0.00 0.00 77 1013.7
20260905175105 86 249 4.0 9.0 0.00 0.00 0.00 76 1013.7
20260905174101 87 249 4.0 10.0 0.00 0.00 0.00 76 1014.0
20260905173559 87 223 3.0 10.0 0.00 0.00 0.00 78 1014.1
20260905173058 86 238 4.0 8.0 0.00 0.00 0.00 78 1014.2
20260905172553 86 272 4.0 9.0 0.00 0.00 0.00 79 1014.2
20260905172053 86 267 4.0 9.0 0.00 0.00 0.00 78 1014.2
20260905171550 86 241 3.0 7.0 0.00 0.00 0.00 78 1014.3
20260905170551 85 244 3.0 5.0 0.00 0.00 0.00 78 1014.4
20260905170051 86 237 2.0 7.0 0.00 0.00 0.00 77 1014.6
20260905165552 85 191 3.0 7.0 0.00 0.00 0.00 78 1014.5
20260905165052 85 236 3.0 7.0 0.00 0.00 0.00 80 1014.5
20260905164549 86 280 3.0 8.0 0.00 0.00 0.00 79 1014.7
20260905164045 85 285 4.0 8.0 0.00 0.00 0.00 79 1014.6
20260905163045 85 50 2.0 6.0 0.00 0.00 0.00 81 1014.7
20260905162545 84 237 2.0 4.0 0.00 0.00 0.00 81 1014.9
20260905161544 83 237 3.0 6.0 0.00 0.00 0.00 82 1014.9
20260905161044 83 237 3.0 6.0 0.00 0.00 0.00 83 1014.9
20260905160542 82 260 3.0 7.0 0.00 0.00 0.00 84 1015.0
20260905160043 82 261 4.0 7.0 0.00 0.00 0.00 84 1015.1
20260905155544 82 221 3.0 7.0 0.00 0.00 0.00 84 1015.2
20260905155049 82 272 3.0 8.0 0.00 0.00 0.00 84 1015.3
20260905154544 82 281 4.0 8.0 0.00 0.00 0.00 83 1015.4
20260905154042 82 263 3.0 7.0 0.00 0.00 0.00 83 1015.3
20260905152538 82 253 2.0 6.0 0.00 0.00 0.00 85 1015.5
20260905152052 81 284 2.0 4.0 0.00 0.00 0.00 86 1015.6
20260905151030 81 287 2.0 5.0 0.00 0.00 0.00 87 1015.6
20260905150532 81 287 3.0 7.0 0.00 0.00 0.00 87 1015.6
20260905145530 80 289 2.0 5.0 0.00 0.00 0.00 87 1015.7
20260905145030 80 289 3.0 5.0 0.00 0.00 0.00 88 1015.7
20260905144031 80 281 2.0 4.0 0.00 0.00 0.00 88 1015.7
20260905143530 80 281 2.0 5.0 0.00 0.00 0.00 88 1015.6
20260905143034 79 281 3.0 5.0 0.00 0.00 0.00 88 1015.6
20260905142533 80 281 3.0 5.0 0.00 0.00 0.00 89 1015.6
20260905142032 79 281 3.0 4.0 0.00 0.00 0.00 88 1015.7
20260905141547 79 281 3.0 7.0 0.00 0.00 0.00 89 1015.7
20260905141040 79 285 3.0 7.0 0.00 0.00 0.00 89 1015.6
20260905140035 79 289 4.0 8.0 0.00 0.00 0.00 89 1015.6
20260905135544 79 307 3.0 6.0 0.00 0.00 0.00 89 1015.6
20260905135030 79 286 2.0 5.0 0.00 0.00 0.00 90 1015.5
20260905134532 79 286 2.0 7.0 0.00 0.00 0.00 90 1015.6
20260905134033 79 286 2.0 7.0 0.00 0.00 0.00 91 1015.5
20260905133528 78 287 2.0 5.0 0.00 0.00 0.00 91 1015.5
20260905133049 78 289 3.0 5.0 0.00 0.00 0.00 91 1015.7
20260905132532 78 291 3.0 7.0 0.00 0.00 0.00 92 1015.7
20260905132044 78 297 4.0 7.0 0.00 0.00 0.00 92 1015.7
20260905131025 78 279 2.0 5.0 0.00 0.00 0.00 92 1015.7
20260905130526 78 280 3.0 6.0 0.00 0.00 0.00 93 1015.6
20260905130030 78 274 3.0 6.0 0.00 0.00 0.00 93 1015.6
20260905125516 77 266 3.0 6.0 0.00 0.00 0.00 93 1015.5
20260905125013 77 280 3.0 5.0 0.00 0.00 0.00 94 1015.3
20260905124514 77 289 2.0 4.0 0.00 0.00 0.00 94 1015.4
20260905124014 77 289 2.0 4.0 0.00 0.00 0.00 95 1015.4
20260905123512 77 290 2.0 4.0 0.00 0.00 0.00 95 1015.3
20260905123012 77 290 3.0 5.0 0.00 0.00 0.00 95 1015.3
20260905122512 77 290 3.0 5.0 0.00 0.00 0.00 95 1015.3
20260905122021 77 291 3.0 6.0 0.00 0.00 0.00 95 1015.3
20260905121516 77 295 4.0 7.0 0.00 0.00 0.00 95 1015.3
20260905120513 77 263 2.0 6.0 0.00 0.00 0.00 95 1015.1
20260905120013 77 238 1.0 3.0 0.00 0.00 0.00 95 1015.0
20260905114505 77 238 2.0 4.0 0.00 0.00 0.00 96 1014.8
20260905114004 77 238 1.0 2.0 0.00 0.00 0.00 96 1014.7
20260905113505 77 238 2.0 5.0 0.00 0.00 0.00 96 1014.7
20260905113004 76 238 2.0 5.0 0.00 0.00 0.00 96 1014.6
20260905112504 76 238 1.0 3.0 0.00 0.00 0.00 96 1014.5
20260905112004 77 238 1.0 3.0 0.00 0.00 0.00 96 1014.6
20260905111002 76 238 1.0 3.0 0.00 0.00 0.00 96 1014.6
20260905110501 76 238 1.0 3.0 0.00 0.00 0.00 96 1014.7
20260905110014 76 238 1.0 4.0 0.00 0.00 0.00 96 1014.6
20260905104502 76 238 2.0 4.0 0.00 0.00 0.00 96 1014.5
20260905104002 76 238 2.0 4.0 0.00 0.00 0.00 96 1014.3
20260905103502 76 238 2.0 4.0 0.00 0.00 0.00 96 1014.4
20260905103004 76 235 2.0 4.0 0.00 0.00 0.00 96 1014.3
20260905102502 76 232 1.0 3.0 0.00 0.00 0.00 96 1014.4
20260905102001 76 232 1.0 3.0 0.00 0.00 0.00 96 1014.3
20260905101503 76 232 1.0 3.0 0.00 0.00 0.00 96 1014.3
20260905101003 76 232 1.0 3.0 0.00 0.00 0.00 96 1014.2
20260905100503 76 232 2.0 4.0 0.00 0.00 0.00 96 1014.1
20260905100004 76 232 2.0 4.0 0.00 0.00 0.00 96 1014.0
20260905095503 76 232 2.0 5.0 0.00 0.00 0.00 96 1014.0
20260905095002 76 232 3.0 5.0 0.00 0.00 0.00 96 1014.0
20260905094001 77 198 2.0 4.0 0.00 0.00 0.00 96 1013.8
20260905093501 77 198 2.0 4.0 0.00 0.00 0.00 96 1013.9
20260905093001 77 197 1.0 4.0 0.00 0.00 0.00 96 1013.9
20260905092505 77 197 1.0 3.0 0.00 0.00 0.00 96 1014.0
20260905092006 77 197 1.0 3.0 0.00 0.00 0.00 96 1014.0
20260905091502 77 197 1.0 4.0 0.00 0.00 0.00 96 1014.0
20260905091001 77 197 2.0 4.0 0.00 0.00 0.00 96 1013.9
20260905090501 77 197 1.0 3.0 0.00 0.00 0.00 96 1013.7
20260905090001 77 197 2.0 4.0 0.00 0.00 0.00 96 1013.7
20260905085502 77 197 3.0 5.0 0.00 0.00 0.00 96 1013.6
20260905084457 77 193 2.0 6.0 0.00 0.00 0.00 96 1013.5
20260905083506 77 194 2.0 5.0 0.00 0.00 0.00 96 1013.4
20260905082959 77 147 2.0 3.0 0.00 0.00 0.00 96 1013.6
20260905082451 77 147 1.0 3.0 0.00 0.00 0.00 96 1013.6
20260905081951 77 118 1.0 2.0 0.00 0.00 0.00 96 1013.7
20260905081446 77 118 1.0 3.0 0.00 0.00 0.00 96 1013.8
20260905080442 77 118 0.0 0.0 0.00 0.00 0.00 96 1013.8
20260905075941 77 118 0.0 0.0 0.00 0.00 0.00 96 1013.7
20260905075441 77 118 0.0 2.0 0.00 0.00 0.00 96 1013.8
20260905074939 78 118 1.0 3.0 0.00 0.00 0.00 96 1013.8
20260905074441 78 118 1.0 3.0 0.00 0.00 0.00 96 1013.8
20260905073937 78 118 0.0 0.0 0.00 0.00 0.00 96 1013.8
20260905073442 78 118 0.0 0.0 0.00 0.00 0.00 96 1013.9
20260905072942 78 118 0.0 0.0 0.00 0.00 0.00 96 1013.9
20260905072436 78 118 0.0 0.0 0.00 0.00 0.00 96 1013.8
20260905071934 78 118 0.0 0.0 0.00 0.00 0.00 96 1013.9
20260905071431 78 118 1.0 3.0 0.00 0.00 0.00 96 1013.9
20260905070931 78 118 1.0 3.0 0.00 0.00 0.00 96 1013.8
20260905065925 78 118 0.0 3.0 0.00 0.00 0.00 96 1013.8
20260905065422 78 117 0.0 0.0 0.00 0.00 0.00 96 1013.8
20260905064919 78 117 0.0 0.0 0.00 0.00 0.00 95 1013.9
20260905064418 78 117 0.0 0.0 0.00 0.00 0.00 96 1014.0
20260905063919 78 117 0.0 0.0 0.00 0.00 0.00 95 1014.0
20260905062913 78 117 0.0 0.0 0.00 0.00 0.00 95 1014.1
20260905062410 78 117 0.0 0.0 0.00 0.00 0.00 95 1014.2
20260905061909 78 117 0.0 0.0 0.00 0.00 0.00 95 1014.2
20260905060903 78 117 0.0 0.0 0.00 0.00 0.00 95 1014.3
20260905060404 78 117 0.0 0.0 0.00 0.00 0.00 95 1014.5
20260905055855 78 117 0.0 0.0 0.00 0.00 0.00 95 1014.6
20260905055349 78 117 0.0 0.0 0.00 0.00 0.00 95 1014.6
20260905054844 78 117 0.0 0.0 0.00 0.00 0.00 95 1014.6
20260905054339 78 117 0.0 0.0 0.00 0.00 0.00 95 1014.5
20260905053839 78 117 0.0 0.0 0.00 0.00 0.00 95 1014.6
20260905052335 78 117 0.0 0.0 0.00 0.00 0.00 95 1014.9
20260905051837 78 117 0.0 0.0 0.00 0.00 0.00 95 1014.9
20260905051335 78 117 0.0 0.0 0.00 0.00 0.00 95 1014.9
20260905050335 78 117 0.0 0.0 0.00 0.00 0.00 95 1014.9
20260905045833 78 117 0.0 0.0 0.00 0.00 0.00 95 1015.0
20260905045331 78 117 0.0 0.0 0.00 0.00 0.00 95 1015.1
20260905044836 78 117 0.0 0.0 0.00 0.00 0.00 95 1015.1
20260905044329 78 117 0.0 0.0 0.00 0.00 0.00 95 1015.0
20260905043827 78 117 0.0 0.0 0.00 0.00 0.00 95 1015.1
20260905042824 78 117 0.0 0.0 0.00 0.00 0.00 95 1015.2
20260905041813 78 117 0.0 0.0 0.00 0.00 0.00 94 1015.2
20260905041312 78 117 0.0 0.0 0.00 0.00 0.00 94 1015.2
20260905040307 78 117 0.0 0.0 0.00 0.00 0.00 94 1015.2